Theta_e
310 310 310 309 308 308 308 308 309 310 310 312 313 314 314 314 314 312 321 334 321 313 314 321 319 316 317 313 307 309 309 310 307 303 302 303 299 301 298 300 298 296 294 292 294 290 290 303 301 294 297 299 298 297
310 310 309 309 307 307 307 308 309 309 310 311 312 314 315 314 314 315 320 327 324 316 316 322 319 320 318 319 313 309 310 309 309 306 304 302 299 299 297 292 304 295 297 294 295 293 301 304 300 303 298 296 295 296
310 310 309 308 307 307 307 308 308 309 310 310 312 313 314 314 313 313 320 323 321 314 314 314 313 318 319 319 320 310 310 312 307 313 308 304 299 301 295 297 299 302 304 295 297 303 302 299 303 300 299 297 298 298
310 310 309 309 308 307 307 308 308 309 310 310 311 313 314 313 313 314 320 322 323 316 309 311 321 317 323 324 324 320 316 316 314 312 305 302 300 303 298 299 298 301 303 298 298 303 304 303 300 299 300 301 302 302
310 309 309 309 308 307 307 308 308 309 309 311 312 313 313 313 312 314 319 318 319 316 308 309 315 319 319 320 319 320 319 312 307 304 301 299 301 301 299 299 296 300 299 295 293 299 298 297 301 303 301 301 302 302
309 309 309 309 308 307 307 308 308 309 310 311 312 313 313 312 312 321 311 317 314 321 311 304 313 316 318 318 317 315 312 309 307 305 304 305 308 303 296 293 301 303 303 301 299 304 300 303 303 304 301 301 303 302
309 309 309 308 308 307 307 308 309 309 309 310 310 311 312 311 312 312 311 314 311 317 311 305 306 314 317 315 313 312 312 310 309 305 304 303 304 303 298 294 302 303 303 303 303 302 301 300 298 302 302 303 304 302
309 309 308 308 307 307 307 308 308 309 309 310 310 311 311 311 312 310 316 313 313 317 314 304 303 308 313 309 306 311 307 307 307 305 306 304 305 302 296 300 301 302 303 304 304 303 299 299 301 302 301 301 300 300
309 308 308 307 307 306 307 307 308 309 309 310 310 311 316 315 308 310 318 316 317 314 308 304 301 299 312 309 308 308 309 303 308 304 305 305 301 297 300 299 300 303 301 301 303 301 301 301 300 300 299 299 298 298
308 308 308 306 306 307 307 307 308 309 310 312 316 314 303 309 318 320 316 309 309 309 312 304 306 303 308 305 305 306 306 304 299 303 307 299 297 303 303 301 303 305 305 303 297 296 300 298 299 298 298 299 299 299
308 308 306 306 307 307 307 308 308 309 314 311 310 309 314 320 315 313 305 305 304 303 306 307 307 305 311 307 306 309 306 306 301 304 301 297 295 302 303 304 306 306 303 302 302 301 300 299 298 298 299 299 300 300
308 306 306 306 307 307 308 307 307 310 308 307 305 308 315 310 303 304 301 302 303 303 306 306 306 308 307 310 307 304 301 305 300 307 300 295 300 304 304 307 309 303 303 302 302 301 301 301 300 299 299 299 299 299
305 305 306 306 307 307 308 307 308 308 307 311 314 309 302 302 296 301 299 301 300 305 305 305 304 305 304 306 307 301 299 300 307 300 297 299 304 305 306 308 304 303 304 303 301 302 302 302 302 299 299 300 299 300
305 305 306 306 306 307 308 308 308 310 317 314 304 292 300 299 300 300 301 302 305 305 306 305 303 303 306 302 303 299 301 303 298 296 297 301 304 307 308 308 303 302 302 301 301 302 301 301 300 300 300 301 300 298
305 306 306 307 307 307 307 308 310 315 315 304 304 294 299 302 301 302 305 303 306 306 305 304 304 303 301 300 301 299 299 297 299 297 300 304 306 306 305 303 302 302 300 299 300 301 301 301 299 298 298 299 298 298
305 306 308 307 306 306 307 311 319 319 309 305 304 301 301 302 301 303 303 302 306 305 306 304 302 298 300 300 299 298 297 298 299 302 305 305 304 302 302 303 303 303 301 299 300 301 301 301 299 297 299 298 296 297
305 306 308 306 305 306 311 314 316 308 306 305 301 302 301 301 300 302 303 304 308 305 301 303 299 298 300 297 297 301 299 301 304 305 305 304 302 302 304 304 305 304 301 299 300 301 300 301 299 297 297 297 295 295
305 305 307 306 305 310 316 314 313 308 303 303 298 298 300 302 302 302 304 305 306 304 303 301 302 297 297 298 297 301 303 305 306 307 306 305 305 305 306 304 305 302 301 300 300 300 299 299 295 294 295 295 293 294
302 303 305 305 304 305 311 309 311 305 302 303 301 300 300 300 302 303 305 305 306 307 304 301 300 299 298 301 301 302 304 305 305 304 305 305 305 306 305 304 303 300 300 299 298 298 299 298 295 296 294 293 292 294
304 306 306 306 307 310 309 305 311 307 302 303 302 301 302 302 303 304 304 304 304 304 301 301 300 301 301 304 305 305 305 306 305 302 302 304 306 305 304 303 301 301 300 299 299 298 299 295 296 295 295 294 293 293
308 307 308 310 313 310 305 304 306 304 305 303 302 301 301 301 300 302 303 303 302 300 299 303 302 303 304 303 304 304 304 303 302 301 302 302 305 305 305 305 304 301 298 298 297 295 295 295 296 296 295 295 295 295
308 308 307 313 307 306 304 306 304 305 304 303 300 301 300 300 301 301 301 299 301 301 304 304 304 302 302 302 304 305 305 304 302 300 298 299 300 300 303 305 303 303 302 301 299 297 296 296 297 296 295 296 295 295
307 307 308 309 303 295 296 305 304 304 300 299 300 299 299 299 302 303 298 301 302 304 306 305 306 306 304 305 305 305 305 303 301 303 304 303 303 303 300 301 302 302 300 299 299 298 297 295 295 295 296 295 294 294
305 304 301 300 299 295 305 302 303 301 301 299 299 298 299 302 302 299 297 299 302 304 303 303 305 303 303 304 302 303 303 304 304 305 306 307 306 304 304 305 304 303 303 301 300 299 298 297 295 295 295 295 294 294
294 293 297 288 299 301 301 300 300 299 299 300 299 298 299 301 297 297 297 299 301 302 303 303 302 302 301 302 304 305 307 305 305 305 306 306 305 305 304 304 304 304 303 300 299 300 299 299 296 295 296 295 294 295
284 297 294 300 300 299 298 297 297 297 298 298 299 300 300 297 296 295 299 301 301 303 304 303 302 300 301 301 301 302 304 306 305 305 306 307 305 305 303 303 305 306 306 302 300 301 300 298 297 297 295 295 290 293
288 297 300 303 301 301 299 300 300 297 298 297 298 298 297 295 295 300 303 305 303 305 306 305 304 303 302 302 303 304 304 304 306 305 307 307 308 308 307 303 302 303 304 304 302 301 300 299 298 297 296 295 296 296
300 299 297 299 299 300 298 298 298 297 298 301 298 296 296 298 297 303 305 307 306 305 306 306 306 305 304 305 305 304 303 304 306 306 305 305 305 305 306 306 307 299 303 305 304 303 302 301 299 299 298 297 296 296
297 300 300 297 299 299 299 298 298 301 303 301 297 297 299 302 305 304 305 306 307 305 304 304 304 305 304 303 303 303 302 305 302 300 299 299 299 302 305 306 308 308 310 306 294 295 303 302 301 301 300 299 298 297
298 300 297 298 297 296 299 302 301 304 303 303 303 301 301 302 305 306 305 304 302 303 303 305 304 302 301 301 301 303 303 303 305 302 299 299 301 304 304 305 306 306 306 304 303 303 288 294 292 296 297 297 296 295
300 299 297 297 297 299 302 302 302 302 302 301 301 299 298 300 303 305 305 306 306 305 304 304 304 304 303 302 301 300 299 302 304 305 305 303 302 302 304 305 305 305 305 306 304 302 301 297 297 298 299 298 298 295
298 297 296 295 295 300 300 298 297 297 298 297 297 299 299 299 297 301 305 305 303 302 298 300 301 301 303 303 303 303 294 303 304 304 304 303 303 304 304 304 303 304 303 303 303 301 300 300 299 299 298 298 299 299
296 296 296 295 295 295 297 298 297 296 296 295 296 297 297 297 296 300 304 304 303 301 302 303 303 304 305 307 306 305 298 305 302 294 291 289 288 292 297 301 303 304 303 303 303 302 302 301 300 301 301 301 301 301
Wind_Speed
11 13 14 16 17 18 20 21 22 22 22 22 22 21 20 19 16 4 2 2 6 5 2 4 6 4 4 3 5 5 6 6 4 4 1 1 3 2 6 3 2 3 2 3 3 3 3 5 3 7 5 3 2 3
11 12 14 16 17 18 20 21 23 23 22 22 22 21 19 19 19 8 4 3 3 6 4 3 0 1 3 3 6 2 6 3 5 4 2 4 5 4 3 1 5 4 2 5 2 4 4 2 6 4 5 3 3 2
12 13 14 16 17 18 19 21 22 22 22 21 21 21 20 18 16 8 2 4 5 5 4 5 5 6 4 2 4 6 3 4 1 4 4 3 7 3 3 0 3 3 2 5 4 0 5 4 3 5 5 3 3 3
11 13 14 16 17 19 20 21 22 22 21 21 20 20 19 19 16 8 2 3 4 4 5 5 4 6 5 5 5 4 5 4 5 5 5 4 5 3 2 2 4 2 3 4 3 2 2 2 2 4 3 4 1 1
11 13 15 16 17 19 20 21 22 22 21 20 19 18 17 17 16 3 1 3 1 7 5 3 5 7 6 7 9 7 7 6 4 5 5 3 3 6 2 4 4 1 3 4 4 5 5 5 3 5 4 5 5 4
12 13 15 17 18 20 21 22 23 22 21 20 18 18 15 15 15 4 5 3 4 3 6 3 4 5 7 8 11 10 5 5 5 5 2 3 2 6 4 2 3 1 3 4 3 5 6 5 5 3 5 4 7 5
12 14 16 17 19 20 22 22 23 23 21 19 18 16 14 11 3 4 6 4 6 2 5 3 3 6 3 6 5 5 6 3 5 3 4 4 3 5 4 3 5 4 4 2 1 3 4 3 2 7 6 6 7 4
12 14 16 17 19 21 22 23 24 24 22 19 17 14 12 6 2 4 3 3 1 5 4 4 3 4 1 2 3 3 4 5 6 4 2 4 3 4 3 3 5 5 3 2 4 5 5 2 9 7 5 5 7 6
13 15 16 18 20 22 22 24 25 25 22 18 15 11 3 5 4 5 5 3 2 5 4 4 5 4 2 1 1 4 3 3 2 3 2 5 2 1 6 7 7 5 3 1 5 2 6 9 6 5 5 6 6 5
13 16 17 19 21 22 22 23 27 26 23 11 6 5 5 4 7 8 9 5 6 4 4 3 2 2 4 1 1 3 2 2 3 3 4 5 0 1 6 7 7 6 4 6 2 4 5 4 5 4 4 3 4 4
14 16 18 20 21 21 20 21 26 24 9 6 5 2 5 8 5 5 3 3 3 4 3 2 2 3 3 4 3 3 3 2 4 4 5 1 2 4 7 7 6 4 5 2 7 6 6 6 4 4 5 5 4 5
15 17 19 19 21 21 19 18 18 6 2 1 2 4 4 5 5 3 2 3 4 1 3 2 2 3 2 3 3 1 2 2 4 3 5 2 3 6 7 7 5 7 5 8 7 8 6 7 6 6 3 3 2 3
15 17 19 20 20 19 19 17 10 10 4 2 2 4 5 3 9 4 4 5 4 5 5 2 2 0 4 4 3 3 4 1 2 4 2 4 4 7 7 5 6 4 9 7 7 7 8 7 6 4 3 1 3 3
16 18 19 19 19 18 19 16 10 1 3 3 3 7 2 4 3 0 3 3 4 2 5 1 1 2 0 3 1 3 2 4 2 3 4 3 6 7 6 3 7 7 8 8 7 7 7 6 3 3 3 2 2 4
17 18 17 12 15 18 19 16 6 2 3 3 4 2 2 2 1 1 1 4 5 2 4 4 3 3 2 2 2 3 0 1 2 3 3 4 6 6 5 6 8 7 7 6 5 5 4 4 3 3 3 1 1 5
17 15 3 13 18 22 18 9 2 2 3 3 3 4 4 5 5 5 4 3 3 4 2 3 2 3 1 2 2 4 2 2 3 3 3 5 6 6 6 7 7 7 7 6 5 5 3 2 5 4 1 2 3 4
10 2 10 15 21 22 5 3 4 3 1 3 2 1 3 2 2 2 1 3 3 4 2 2 3 2 1 1 3 4 1 3 4 3 3 5 7 7 7 7 6 7 7 6 5 5 4 3 4 1 3 2 4 4
2 6 15 14 12 7 4 2 3 1 1 2 4 4 1 2 1 2 2 2 3 2 2 1 1 3 3 2 0 2 2 2 2 4 5 4 5 6 5 6 6 6 7 7 6 5 2 4 3 1 5 4 2 3
8 11 18 13 3 1 3 4 4 1 2 1 1 0 2 2 3 2 2 3 0 2 1 3 5 3 1 2 3 3 3 4 5 5 4 6 7 5 5 5 5 4 7 5 4 4 4 6 4 5 5 3 2 3
10 12 9 9 7 2 4 4 3 2 2 4 1 1 3 3 2 2 2 1 2 2 3 3 2 3 3 3 1 3 3 4 4 2 2 2 3 6 6 6 5 4 5 5 4 5 3 3 3 5 5 4 3 4
8 6 8 2 1 1 1 2 4 2 2 1 3 2 3 2 1 1 2 1 3 1 2 1 2 3 3 2 2 3 4 5 4 5 5 4 5 5 5 5 6 4 5 4 3 4 5 5 6 5 5 5 5 5
4 9 3 3 2 5 1 2 3 3 2 3 3 1 1 1 1 2 1 3 2 3 4 5 4 3 2 2 2 3 4 4 4 2 1 4 3 3 4 7 4 7 6 7 5 6 6 6 5 5 5 6 5 4
8 3 3 2 0 4 7 2 2 2 0 3 3 2 2 1 2 2 2 3 3 2 3 3 4 5 5 4 2 2 4 4 3 4 4 5 5 5 5 5 5 7 7 6 5 6 6 8 7 6 5 4 4 4
1 1 2 3 3 3 2 2 2 2 2 2 2 2 1 2 1 2 2 3 3 1 2 4 4 3 2 2 3 5 4 3 5 4 5 4 4 4 2 3 7 5 7 5 6 7 6 6 6 5 4 5 5 5
4 4 4 5 3 2 3 2 2 1 3 3 2 2 1 2 1 2 2 4 1 0 2 1 1 1 1 2 3 2 4 3 5 7 4 1 3 2 4 4 4 3 4 4 4 6 5 5 5 6 6 6 7 7
3 2 4 3 3 1 3 1 2 2 2 1 2 2 2 3 1 3 1 2 2 2 2 2 3 2 2 1 1 2 4 3 2 3 4 5 5 4 3 2 2 7 9 4 4 5 7 6 6 8 7 8 7 5
2 4 4 4 2 2 3 3 1 2 2 2 1 2 0 2 1 1 2 2 1 3 4 4 4 4 4 3 3 4 5 3 5 5 6 6 6 6 5 5 6 8 5 6 5 7 8 8 7 7 7 5 7 7
3 2 1 5 3 1 1 3 3 2 2 4 3 2 3 2 1 3 3 3 3 3 2 3 3 3 3 4 4 4 6 2 3 3 3 4 4 3 6 7 8 14 7 6 7 6 7 7 8 8 8 8 8 6
3 4 2 3 4 3 2 2 2 0 1 2 2 2 2 2 3 2 3 3 3 1 2 3 4 3 4 4 4 4 3 3 5 4 6 5 5 7 5 5 5 5 9 5 7 8 9 7 8 8 9 8 8 6
4 1 2 2 2 3 3 1 2 2 1 3 3 2 3 3 5 3 3 3 3 5 5 5 5 3 5 4 5 6 3 4 5 5 4 5 7 6 5 7 6 6 5 5 6 5 2 2 2 2 4 5 5 6
2 2 0 2 3 4 3 2 2 2 1 2 3 4 5 5 5 4 5 6 6 4 3 4 5 5 4 4 3 4 5 4 7 8 7 5 5 6 6 5 4 3 2 3 3 3 4 4 5 7 8 10 12 11
2 1 1 3 5 5 4 3 3 3 4 2 5 3 4 1 4 5 4 2 2 1 5 5 4 5 5 5 5 5 9 5 6 6 7 5 4 5 5 4 4 4 4 5 5 5 6 7 6 7 8 12 13 14
2 3 2 3 5 6 4 4 3 4 3 2 4 4 4 5 4 5 4 2 4 5 6 6 6 4 6 5 5 4 6 5 7 6 6 4 4 3 2 3 3 3 5 6 6 5 7 8 7 8 9 8 8 7
Wind_Direction
352 345 336 340 340 337 337 338 338 336 336 337 338 339 337 339 342 353 284 199 118 115 307 27 3 44 52 83 147 247 43 354 39 64 89 116 97 106 82 4 63 87 73 23 58 81 185 309 27 81 209 301 346 38
351 339 337 335 336 337 335 336 336 336 335 337 336 335 337 342 346 348 27 349 82 90 172 219 25 350 85 194 141 4 167 162 186 91 64 94 45 49 106 38 4 33 143 144 122 177 198 332 121 142 147 170 285 241
345 338 334 331 332 335 335 334 333 335 334 335 333 332 335 343 351 356 30 349 50 80 19 41 15 340 22 5 187 120 303 175 145 167 146 126 79 99 96 95 94 54 119 106 86 43 147 170 154 160 178 201 325 313
340 335 332 328 331 334 333 331 330 333 331 331 330 327 330 337 347 345 71 311 89 105 100 303 321 358 315 21 42 120 137 55 107 67 78 83 101 62 71 142 98 235 57 128 93 165 48 262 198 188 157 131 130 332
336 331 329 327 331 333 331 327 328 329 328 326 325 321 326 330 336 311 115 14 77 120 150 229 317 324 353 18 40 55 75 77 55 54 63 92 112 86 45 67 7 355 169 133 196 186 162 249 180 182 184 229 234 242
332 329 326 327 331 330 326 325 325 326 324 321 319 313 318 327 329 64 25 338 29 53 95 43 278 338 3 35 49 54 58 61 81 99 108 78 87 97 98 115 216 139 90 146 165 209 165 206 235 246 257 261 256 306
326 328 325 325 329 327 326 323 322 322 320 317 309 303 313 320 358 106 174 227 14 49 85 47 346 301 4 45 13 38 27 55 93 96 45 97 40 75 93 147 194 160 129 114 20 33 67 56 292 359 26 33 35 49
327 327 323 325 327 326 324 321 321 319 317 309 298 303 308 299 305 11 285 206 354 85 82 106 275 15 40 14 43 359 45 23 10 128 59 90 29 73 78 151 161 135 149 344 15 127 174 225 47 45 49 41 40 21
326 321 322 325 326 324 323 319 321 320 316 303 300 302 20 29 28 261 293 268 127 120 127 99 136 220 353 31 106 19 85 58 304 82 62 77 7 87 178 153 137 136 142 92 59 148 37 72 81 60 58 37 44 7
319 319 322 325 325 323 321 322 324 324 316 304 39 39 3 264 319 3 6 23 9 338 45 109 130 186 108 100 342 86 60 149 81 252 95 74 199 299 145 159 158 181 228 132 102 348 81 66 76 62 60 56 40 29
316 319 321 325 324 319 320 326 326 326 8 32 16 337 262 308 45 32 18 61 326 26 12 307 107 136 325 118 193 161 170 177 137 225 106 119 195 208 185 168 190 198 169 66 109 112 124 136 129 81 47 31 40 25
316 317 320 322 320 317 318 327 327 5 78 300 258 273 308 31 33 56 323 336 53 203 335 91 284 166 288 109 101 293 161 84 179 160 90 172 249 173 175 188 201 201 158 107 109 113 100 84 89 83 44 29 13 355
315 316 318 319 314 312 315 316 311 258 287 139 27 31 42 318 38 34 25 341 15 348 335 356 332 122 360 36 73 75 66 253 95 65 154 221 182 170 185 168 190 166 107 118 102 100 91 89 85 72 19 353 358 338
314 314 317 313 308 306 310 311 299 359 62 46 56 349 76 357 38 171 164 195 242 34 336 316 276 108 7 51 121 83 228 106 210 118 220 220 188 178 181 182 119 121 121 111 106 99 92 107 113 9 14 245 339 325
313 313 314 303 309 316 318 314 320 108 76 34 44 3 25 260 246 297 208 38 332 334 18 4 6 81 347 81 40 73 277 115 59 205 227 184 175 162 147 129 126 128 128 122 119 108 120 137 163 296 317 220 318 328
319 312 279 320 331 327 322 324 24 49 33 41 39 27 330 55 348 11 18 4 327 329 0 53 16 48 312 157 150 220 125 186 210 199 178 138 143 145 140 138 143 147 141 136 132 164 183 172 211 255 355 144 327 326
319 303 329 342 335 317 337 23 16 31 36 357 340 98 120 105 198 245 135 307 304 51 335 12 43 238 346 3 48 24 167 195 163 134 125 138 150 162 158 157 159 145 145 159 180 199 221 218 217 20 128 250 291 323
252 303 323 338 342 331 327 32 28 347 345 348 85 280 62 163 154 311 288 299 64 7 43 322 204 21 23 60 242 248 133 106 119 145 159 153 155 162 162 157 161 156 168 190 209 221 209 209 235 219 178 226 294 335
263 291 296 308 305 25 353 335 80 14 248 212 286 350 104 255 259 244 276 302 236 178 69 27 51 39 339 299 155 205 181 159 163 186 181 178 167 160 158 153 155 148 185 216 228 229 223 209 203 175 202 191 221 251
290 276 273 293 181 51 339 317 77 75 308 249 27 360 168 203 241 330 302 319 32 31 18 67 145 197 166 257 224 156 183 171 134 111 284 284 200 158 180 187 207 219 215 253 262 230 170 139 186 197 202 196 188 255
342 314 343 52 27 79 134 327 339 210 290 8 252 95 266 360 355 319 276 328 46 218 66 107 147 206 200 145 131 131 102 126 160 166 200 191 221 191 211 227 218 201 213 228 211 233 181 193 200 203 203 216 222 233
282 358 347 324 30 357 5 285 167 266 50 249 349 80 276 324 348 288 235 61 241 237 165 157 182 161 115 115 163 143 174 162 173 183 274 128 171 220 234 227 199 228 226 230 204 191 201 205 197 200 199 229 224 241
331 16 320 331 317 43 266 31 15 271 28 267 13 349 302 358 241 40 6 231 235 223 144 140 164 160 166 214 197 241 225 209 239 236 239 230 234 237 243 241 214 213 222 238 191 180 195 201 204 200 207 221 222 231
41 26 357 315 129 248 315 287 248 298 317 357 244 228 154 195 332 59 244 253 225 149 121 144 122 115 335 315 249 248 266 229 243 253 239 229 259 284 240 297 302 256 224 220 178 192 200 195 199 194 206 223 221 225
47 323 87 305 265 312 239 203 246 289 243 214 9 326 292 60 36 283 285 312 355 205 197 180 63 20 171 331 317 294 279 241 244 245 334 171 165 349 336 253 276 272 280 249 209 190 196 189 189 197 210 218 224 231
79 246 146 292 304 198 316 311 217 260 279 230 259 226 80 80 347 283 43 300 336 113 132 121 129 85 7 206 225 287 281 274 93 143 204 157 147 167 233 298 285 278 265 227 194 191 186 185 194 210 221 231 232 225
325 259 243 238 192 329 336 304 297 74 303 253 290 15 85 221 254 324 326 320 136 229 192 182 165 170 208 253 259 258 258 231 217 199 176 182 187 188 184 209 246 246 259 242 195 184 190 201 201 205 212 226 223 215
264 320 334 298 346 251 360 313 307 297 349 327 45 31 356 41 179 259 221 269 253 279 288 269 238 222 241 253 251 271 290 117 143 55 352 321 272 210 217 234 249 262 255 236 236 217 202 202 203 206 208 216 230 228
276 281 1 338 319 290 236 218 302 307 240 86 103 306 292 250 216 219 253 240 248 201 284 289 289 274 291 298 295 288 289 151 162 252 276 276 306 297 278 262 247 253 271 251 246 230 230 212 211 210 218 216 227 226
276 93 68 327 327 304 292 199 278 274 182 177 170 357 337 297 258 233 266 297 291 264 245 230 246 243 253 251 274 291 261 181 170 162 194 239 239 248 265 260 252 246 229 231 237 244 101 199 251 237 220 224 226 230
284 14 334 233 257 267 249 268 314 342 257 236 229 188 240 251 293 269 242 244 244 256 284 294 293 279 251 264 226 234 277 258 222 214 214 221 246 251 263 283 287 273 227 194 203 215 223 225 234 241 247 246 247 243
328 313 326 300 290 278 330 305 254 241 268 282 276 262 299 316 258 280 273 106 77 144 225 211 225 260 245 253 259 247 210 237 230 240 270 270 267 262 266 275 290 286 274 260 252 249 260 261 252 239 240 250 253 254
350 344 313 309 344 352 323 348 292 284 283 277 280 242 239 199 226 246 282 205 200 218 227 237 243 245 240 233 235 268 271 260 262 247 233 206 220 250 293 305 310 322 320 311 312 319 316 310 307 312 320 317 313 321